Voltar ao catálogo

STARLINK-2413

AtivoComunicaçõesVLEO
NORAD 47827·PAYLOAD·🇺🇸 United States

Lançado Mar 11, 2021 de Cape Canaveral Space Force Station

Loading…

Próximas Passagens (próximas 24 horas)

TLE

AtualizadoSource: CelesTrak SupGP

Época: Sep 14, 2026, 20:15 UTC

1 47827C 21018AS  26257.84423611  .00010177  00000+0  32742-3 0  2574
2 47827  53.1584  82.3136 0001294  74.2864 235.3183 15.31682479    18

Acompanhe STARLINK-2413 em tempo real com AllMySat

Download on the App Store